Flag for Germany Weather past 2 weeks in Sankt Augustin, North Rhine-Westphalia, Germany

Now
50 °F

Partly cloudy.


Feels Like: 48 °F
Forecast: 44 / 66 °F
Wind: 5 mph from Southeast

Location: Koeln / Bonn

Current Time: Aug 20, 2014 at 10:52:54 PM

Latest Report: Aug 20, 2014 at 10:20 PM


Visibility: N/A

Pressure: 30.01 "Hg

Humidity: 100%

Dew point: 50 °F

Location of Sankt AugustinLocation

Historic Weather in Sankt Augustin — Graph

°F

Sankt Augustin temperature yesterday

Maximum temperature yesterday: 63 °F (at 11:20 AM)
Minimum temperature yesterday: 48 °F (at 11:20 PM)
Average temperature yesterday: 55 °F

Past Weeks' High & Low Weather Summary

 TemperatureHumidityPressure
High79 °F (Aug 8, 12:20 PM)100% (Aug 16, 1:50 AM)30.12 "Hg (Aug 16, 1:50 AM)
Low45 °F (Aug 20, 5:20 AM)40% (Aug 18, 2:20 PM)29.62 "Hg (Aug 10, 6:20 PM)
Average61 °F78%29.88 "Hg
* Reported Aug 5 9:20 PM — Aug 20 9:50 PM, Sankt Augustin, Weather by CustomWeather, © 2014

Note: Actual official high and low records may vary slightly from our data, if they occured in-between our weather recording intervals... More about our weather records

Advertising

Sankt Augustin weather history for previous 24 hours

 ConditionsComfort  
Time TempWeatherWind HumidityBarometerVisibility
9:50 PM
Aug 20
52 °FScattered showers. Partly cloudy.3 mph94%30.01 "HgN/A
9:20 PM52 °FSprinkles. Broken clouds.6 mph94%30.01 "HgN/A
8:50 PM52 °FRain showers. Partly sunny.7 mph94%30.04 "HgN/A
8:20 PM54 °FRain showers. Broken clouds.15 mph82%30.01 "HgN/A
7:50 PM57 °FSprinkles. Broken clouds.13 mph77%29.98 "HgN/A
7:20 PM57 °FSprinkles. Scattered clouds.15 mph72%29.98 "HgN/A
6:50 PM63 °FScattered showers. Broken clouds.6 mph56%29.98 "HgN/A
6:20 PM64 °FScattered showers. Scattered clouds.6 mph46%29.98 "HgN/A
5:50 PM66 °FScattered clouds.7 mph46%29.98 "HgN/A
5:20 PM64 °FScattered showers. Scattered clouds.3 mph49%29.98 "HgN/A
4:50 PM64 °FScattered showers. Scattered clouds.2 mph46%29.98 "HgN/A
4:20 PM66 °FSunny.6 mph43%29.98 "Hg10 mi
3:50 PM64 °FScattered clouds.5 mph46%29.98 "HgN/A
3:20 PM64 °FBroken clouds.7 mph49%30.01 "HgN/A
2:50 PM64 °FBroken clouds.8 mph46%30.01 "HgN/A
2:20 PM63 °FScattered clouds.5 mph52%30.01 "HgN/A
1:50 PM63 °FScattered clouds.6 mph52%30.01 "HgN/A
1:20 PM61 °FScattered clouds.5 mph55%30.01 "HgN/A
12:50 PM63 °FScattered clouds.3 mph49%30.01 "HgN/A
12:20 PM59 °FScattered clouds.6 mph59%30.01 "HgN/A
11:50 AM61 °FScattered clouds.7 mph63%30.01 "HgN/A
11:20 AM61 °FScattered clouds.5 mph63%30.01 "HgN/A
10:50 AM59 °FPassing clouds.5 mph63%30.01 "HgN/A
10:20 AM57 °FSunny.3 mph72%30.01 "Hg10 mi
9:50 AM55 °FSunny.3 mph72%30.01 "Hg10 mi
9:20 AM54 °FSunny.3 mph77%30.01 "Hg10 mi
8:50 AM52 °FSunny.7 mph82%30.01 "Hg10 mi
8:20 AM50 °FSunny.6 mph88%30.01 "Hg10 mi
7:50 AM46 °FSunny.3 mph93%30.01 "Hg10 mi
7:20 AM45 °FClear.3 mph100%30.01 "Hg10 mi
6:50 AM45 °FFog.3 mph93%30.01 "HgN/A
6:20 AM45 °FFog.2 mph93%30.01 "HgN/A
5:50 AM45 °FFog.5 mph93%30.01 "HgN/A
5:20 AM45 °FFog.5 mph93%30.01 "HgN/A
4:50 AM46 °FFog.3 mph93%30.01 "HgN/A
4:20 AM46 °FClear.3 mph93%29.98 "Hg10 mi
3:50 AM46 °FClear.2 mph93%29.98 "Hg10 mi
3:20 AM48 °FClear.2 mph87%29.98 "Hg10 mi
2:50 AM48 °FPassing clouds.5 mph87%29.98 "HgN/A
2:20 AM48 °FPassing clouds.2 mph87%29.98 "HgN/A
1:50 AM48 °FPassing clouds.3 mph94%29.98 "HgN/A
1:20 AM46 °FPassing clouds.5 mph93%29.98 "HgN/A
12:50 AM48 °FPassing clouds.5 mph94%29.98 "HgN/A
12:20 AM48 °FClear.3 mph94%29.98 "Hg10 mi
11:50 PM
Aug 19
48 °FClear.2 mph94%29.98 "Hg10 mi
11:20 PM48 °FClear.2 mph94%29.98 "Hg10 mi
10:50 PM50 °FPassing clouds.3 mph82%29.98 "HgN/A
10:20 PM50 °FPassing clouds.2 mph88%29.95 "HgN/A
Weather by CustomWeather, © 2014

See weather overviewHow to use our weather pages